Home   Weather   Cochiti Lake   Past weeks
Flag for USA

Past Weather in Cochiti Lake, New Mexico, USA — August 2020

Now
75 °F

Sunny.


Feels Like: 77 °F
Forecast: 78 / 49 °F
Wind: 10 mph from West

Location: Santa Fe County Municipal Airport
Current Time: Sep 20, 2020 at 12:23:03 pm
Latest Report: Sep 20, 2020 at 11:53 am
Visibility: 10 mi
Pressure30.02 "Hg
Humidity: 26%
Dew Point: 38 °F
Location of Cochiti LakeLocation

August 2020 Weather in Cochiti Lake — Graph

°F

High & Low Weather Summary for August 2020

 TemperatureHumidityPressure
High98 °F (Aug 20, 3:53 pm)87% (Aug 1, 4:53 am)30.39 "Hg (Aug 1, 4:53 am)
Low54 °F (Aug 3, 5:53 am)6% (Aug 11, 12:53 pm)29.64 "Hg (Aug 20, 3:53 pm)
Average76 °F33%29.89 "Hg
* Reported Aug 1 12:53 am — Aug 31 11:53 pm, Cochiti Lake. Weather by CustomWeather, © 2020

Note: Actual official high and low records may vary slightly from our data, if they occured in-between our weather recording intervals... More about our weather records

Cochiti Lake Weather History for August 1, 2020

Scroll right to see more
 ConditionsComfort  
Time TempWeatherWind HumidityBarometerVisibility
12:53 am
Sat, Aug 1
63 °FClear.8 mph65%30.05 "Hg10 mi
1:53 am61 °FClear.3 mph72%30.05 "Hg10 mi
2:53 am59 °FClear.3 mph75%30.05 "Hg10 mi
3:53 am57 °FClear.6 mph83%30.03 "Hg10 mi
4:53 am56 °FClear.5 mph87%30.06 "Hg10 mi
5:53 am56 °FClear.6 mph84%30.10 "Hg10 mi
6:53 am60 °FSunny.8 mph72%30.09 "Hg10 mi
7:53 am67 °FSunny.7 mph55%30.09 "Hg10 mi
8:53 am72 °FSunny.8 mph46%30.07 "Hg10 mi
9:53 am77 °FSunny.5 mph35%30.04 "Hg10 mi
10:53 am79 °FSunny.No wind31%30.04 "Hg10 mi
11:53 am82 °FSunny.7 mph27%30.01 "Hg10 mi
12:53 pm86 °FSunny.10 mph24%29.99 "Hg10 mi
1:53 pm87 °FSunny.12 mph22%29.97 "Hg10 mi
2:53 pm87 °FSunny.7 mph21%29.95 "Hg10 mi
3:53 pm86 °FPartly sunny.12 mph20%29.94 "Hg10 mi
4:53 pm81 °FSunny.7 mph30%29.96 "Hg10 mi
5:53 pm80 °FSunny.21 mph31%29.99 "Hg10 mi
6:53 pm76 °FScattered clouds.20 mph37%29.98 "Hg10 mi
7:53 pm74 °FSunny.14 mph41%29.97 "Hg10 mi
8:53 pm71 °FClear.8 mph47%30.00 "Hg10 mi
9:53 pm70 °FClear.13 mph47%30.01 "Hg10 mi
10:53 pm70 °FClear.10 mph46%30.01 "Hg10 mi
11:53 pm70 °FClear.9 mph46%30.01 "Hg10 mi
Weather by CustomWeather, © 2020

See weather overview